Regional Weather Roundup
Issued by NWS

Home | Current Version | Previous Version | Graphics & Text | Print | Product List | Glossary On
Versions: 1 2 3 4 5 6 7 8 9 10 11 12 13 14 15 16 17 18 19 20 21 22 23 24 25 26 27 28 29 30 31 32 33 34 35 36 37 38 39 40 41 42 43 44 45 46 47 48 49 50
000
ASUS45 KCYS 300610
RWRWY

WYOMING REGIONAL WEATHER ROUNDUP
NATIONAL WEATHER SERVICE CHEYENNE WY
1100 PM MST THU JAN 29 2015

NOTE:  "FAIR" INDICATES FEW OR NO CLOUDS BELOW 12,000 FEET
WITH NO SIGNIFICANT WEATHER AND/OR OBSTRUCTIONS TO VISIBILITY.

WYZ001-300700-
YELLOWSTONE NATIONAL PARK

CITY           SKY/WX    TMP DP  RH WIND       PRES   REMARKS
LK YELLOWSTONE   N/A      1  -2  87 CALM      30.34F
6HR MIN TEMP:   1; 6HR MAX TEMP:  20;

W YELLOWSTONE  NOT AVBL

$$
WYZ002>013-054>058-071-098>099-300700-
NORTHERN WYOMING

CITY           SKY/WX    TMP DP  RH WIND       PRES   REMARKS
JACKSON        FAIR      18  16  93 N8        30.33S WCI   7
CODY           FAIR      27  25  93 CALM      30.26S
GREYBULL       FAIR      25  23  92 W5        30.28F WCI  19
6HR MIN TEMP:  23; 6HR MAX TEMP:  30;

WORLAND        FAIR      22  21  96 S6        30.27F WCI  14
6HR MIN TEMP:  21; 6HR MAX TEMP:  36;

SHERIDAN       FAIR      24  19  81 N3        30.22S
6HR MIN TEMP:  23; 6HR MAX TEMP:  43;

BUFFALO        FAIR      34  21  59 NW5       30.21F WCI  30
6HR MIN TEMP:  30; 6HR MAX TEMP:  41;

GILLETTE       FAIR      29  22  75 S13       30.24F WCI  19
6HR MIN TEMP:  27; 6HR MAX TEMP:  40;

HULETT           N/A    N/A N/A N/A MISG        N/A
NEWCASTLE      FAIR      34  19  55 E9        30.31F WCI  26

$$
WYZ014>020-022>026-101>103-300700-
CENTRAL WYOMING

CITY           SKY/WX    TMP DP  RH WIND       PRES   REMARKS
BIG PINEY      FAIR      18  14  84 E3        30.31F
6HR MIN TEMP:  17; 6HR MAX TEMP:  32;

PINEDALE       FAIR      14  12  92 W8        30.32S WCI   3
DUBOIS         FAIR      23  14  68 NW12      30.24F WCI  12
LANDER         FAIR      28  23  81 NW7       30.24F WCI  21
6HR MIN TEMP:  27; 6HR MAX TEMP:  37;

RIVERTON       FAIR      30  26  85 W5        30.26F WCI  25
6HR MIN TEMP:  29; 6HR MAX TEMP:  37;

CASPER         FAIR      31  26  82 SW10      30.26F WCI  22
6HR MIN TEMP:  29; 6HR MAX TEMP:  39;

DOUGLAS        FAIR      28  21  75 SE7       30.29F WCI  21
6HR MIN TEMP:  25; 6HR MAX TEMP:  39;


$$
WYZ021-027>030-104>119-300700-
SOUTHERN WYOMING

CITY           SKY/WX    TMP DP  RH WIND       PRES   REMARKS
EVANSTON       CLOUDY    32  26  78 E6        30.28F WCI  26
6HR MIN TEMP:  31; 6HR MAX TEMP:  33;

KEMMERER       CLOUDY    28  23  80 N9        30.29F WCI  20
FORT BRIDGER   FAIR      32  29  90 CALM      30.32F
ROCK SPRINGS   FAIR      32  27  81 NE3       30.29R
6HR MIN TEMP:  31; 6HR MAX TEMP:  35;

DIXON          FAIR      32  28  84 CALM      30.32S
RAWLINS        FAIR      27  24  89 CALM      30.28F
6HR MIN TEMP:  27; 6HR MAX TEMP:  36;

SARATOGA       FAIR      30  27  86 S7        30.29F WCI  23
LARAMIE        FAIR      28  22  78 S15       30.28F WCI  16
6HR MIN TEMP:  28; 6HR MAX TEMP:  33;

CHEYENNE       FAIR      30  18  60 S7        30.31F WCI  23
6HR MIN TEMP:  29; 6HR MAX TEMP:  38;

TORRINGTON     FAIR      26  20  77 E8        30.33F WCI  18
6HR MIN TEMP:  26; 6HR MAX TEMP:  40;

PINE BLUFFS    FAIR      30  21  69 S7        30.34F WCI  23

$$



USA.gov is the U.S. government's official web portal to all federal, state and local government web resources and services.